Regional Weather Roundup
Issued by NWS Goodland, KS

Home | Current Version | Previous Version | Graphics & Text | Print | Product List | Glossary On
Versions: 1 2 3 4 5 6 7 8 9 10 11 12 13 14 15 16 17 18 19 20 21 22 23 24 25 26 27 28 29 30 31 32 33 34 35 36 37 38 39 40 41 42 43 44 45 46 47 48 49 50
000
ASUS43 KGLD 242259
RWRGLD

GOODLAND FORECAST AREA HOURLY WEATHER ROUNDUP
NATIONAL WEATHER SERVICE GOODLAND KS
500 PM MDT SUN JUL 24 2016

...OFFICIAL OBSERVATIONS...

CITY           SKY/WX    TMP DP  RH WIND       PRES   REMARKS
GOODLAND KS    LGT RAIN  90  61  37 E18       30.05F
HILL CITY KS   SUNNY     88  62  41 E17G26    30.01F
IMPERIAL NEB   SUNNY     87  57  35 E16       30.07F
MCCOOK NEB     SUNNY     88  59  37 E15       30.04S
AKRON CO       SUNNY     85  57  38 E15G24    30.11F
BURLINGTON CO  SUNNY     90  59  35 E17       30.07F
LIMON CO       CLOUDY    86  56  35 SE21      30.13F
$$

...UNOFFICIAL OBSERVATIONS...

CITY           SKY/WX    TMP DP  RH WIND       PRES   REMARKS
COLBY KS       SUNNY     90  64  43 E16G22    30.05F
LENORA KS        N/A     88  32  13 MISG        N/A
NORTON KS      SUNNY     88  46  23 E13G22    30.02S
SHARON SPRINGS   N/A     94  61  33 E13         N/A
KIT CARSON CO    N/A     91  60  35 MISG        N/A
YUMA CO          N/A     86  61  42 E16         N/A
$$



USA.gov is the U.S. government's official web portal to all federal, state and local government web resources and services.